Retour au catalogue

SL-14 DEB

ActifPO
NORAD 45324·DEBRIS·🇷🇺 Russia

Lancé Aug 15, 1991 depuis Plesetsk Cosmodrome

Loading…

Prochains Passages (prochaines 24 heures)

TLE

FraisSource: Space-Track

Époque: Sep 12, 2026, 17:01 UTC

1 45324U 91056BN  26255.70969304  .00000132  00000-0  29351-3 0  9996
2 45324  82.5425  64.6254 0025658 201.0783 158.9287 13.21063577317073

Suivez SL-14 DEB en temps réel avec AllMySat

Download on the App Store